DW9169 Weather Reports


Display with metric or nautical units.
time (UTC)temp
F
wind
direction
speed
MPH
gust
MPH
rain 1hr
in
rain 24hr
in
rain mn
in
humidity
%
barometer
mb
20260506174907 52 355 0.0 0.0 0.00 0.49 0.36 87 1008.8
20260506174408 52 355 0.0 0.0 0.00 0.49 0.36 87 1008.7
20260506173407 52 355 0.0 0.0 0.00 0.49 0.36 87 1008.7
20260506172908 52 355 0.0 0.0 0.00 0.49 0.36 87 1008.6
20260506172408 52 355 0.0 0.0 0.00 0.49 0.36 87 1008.5
20260506171907 52 351 0.0 0.0 0.00 0.49 0.36 87 1008.5
20260506170908 53 23 0.0 0.0 0.00 0.49 0.36 87 1008.4
20260506170409 53 121 0.0 0.0 0.00 0.49 0.36 87 1008.4
20260506165407 53 121 0.0 0.0 0.00 0.49 0.36 87 1008.3
20260506164407 53 121 0.0 0.0 0.00 0.49 0.36 87 1008.2
20260506163907 53 121 0.0 0.0 0.00 0.49 0.36 87 1008.2
20260506163407 53 122 0.0 0.0 0.00 0.49 0.36 87 1008.2
20260506162907 53 99 0.0 0.0 0.00 0.49 0.36 87 1008.2
20260506162407 53 99 0.0 0.0 0.00 0.49 0.36 87 1008.2
20260506161407 53 99 0.0 0.0 0.00 0.49 0.36 87 1008.3
20260506160907 53 107 0.0 0.0 0.00 0.49 0.36 87 1008.2
20260506160407 53 111 0.0 0.0 0.00 0.49 0.36 87 1008.2
20260506155907 53 99 0.0 0.0 0.00 0.49 0.36 87 1008.2
20260506155407 53 94 0.0 0.0 0.00 0.49 0.36 87 1008.2
20260506154907 53 28 0.0 0.0 0.00 0.49 0.36 87 1008.2
20260506154407 53 345 0.0 0.0 0.00 0.49 0.36 87 1008.2
20260506153907 54 274 0.0 0.0 0.00 0.49 0.36 87 1008.2
20260506153408 54 275 0.0 0.0 0.00 0.49 0.36 87 1008.2
20260506152907 54 275 0.0 0.0 0.00 0.49 0.36 87 1008.1
20260506152407 54 274 0.0 0.0 0.00 0.49 0.36 87 1008.2
20260506151407 53 274 0.0 0.0 0.00 0.49 0.36 87 1008.2
20260506150907 53 275 0.0 0.0 0.00 0.49 0.36 87 1008.2
20260506150408 53 275 0.0 0.0 0.00 0.49 0.36 87 1008.2
20260506145908 54 274 0.0 0.0 0.00 0.49 0.36 87 1008.2
20260506145407 54 274 0.0 0.0 0.00 0.49 0.36 87 1008.2
20260506144907 54 274 0.0 0.0 0.00 0.49 0.36 87 1008.2
20260506144407 54 274 0.0 0.0 0.00 0.49 0.36 87 1008.2
20260506143907 54 274 0.0 0.0 0.00 0.49 0.36 87 1008.1
20260506143407 54 269 0.0 0.0 0.00 0.49 0.36 87 1008.1
20260506142907 54 264 1.0 2.0 0.00 0.49 0.36 87 1008.1
20260506141907 54 265 0.0 0.0 0.00 0.49 0.36 87 1008.1
20260506141408 54 282 0.0 0.0 0.00 0.49 0.36 87 1008.1
20260506140407 54 282 0.0 0.0 0.00 0.49 0.36 87 1008.3
20260506135907 54 276 0.0 0.0 0.00 0.49 0.36 87 1008.3
20260506135407 54 291 0.0 0.0 0.00 0.49 0.36 87 1008.3
20260506134907 54 204 0.0 2.0 0.00 0.49 0.36 87 1008.2
20260506134407 54 22 0.0 0.0 0.00 0.49 0.36 87 1008.2
20260506133907 53 257 0.0 0.0 0.00 0.49 0.36 87 1008.3
20260506133408 53 306 0.0 0.0 0.00 0.49 0.36 87 1008.3
20260506132407 53 303 0.0 0.0 0.00 0.49 0.36 87 1008.2
20260506131907 53 296 0.0 0.0 0.00 0.49 0.36 87 1008.3
20260506130907 53 293 2.0 5.0 0.00 0.49 0.36 87 1008.2
20260506130408 53 282 1.0 3.0 0.00 0.49 0.36 87 1008.2
20260506125907 53 292 1.0 3.0 0.00 0.49 0.36 88 1008.2
20260506125407 53 348 0.0 0.0 0.00 0.49 0.36 88 1008.2
20260506124907 53 24 0.0 2.0 0.00 0.49 0.36 88 1008.1
20260506123907 53 269 1.0 2.0 0.00 0.49 0.36 88 1008.1
20260506123408 53 11 1.0 3.0 0.00 0.49 0.36 88 1008.0
20260506122907 53 297 1.0 2.0 0.00 0.49 0.36 88 1008.0
20260506122408 53 294 1.0 3.0 0.00 0.49 0.36 88 1008.0
20260506121907 53 22 0.0 2.0 0.00 0.49 0.36 88 1007.9
20260506121407 53 0 0.0 3.0 0.00 0.49 0.36 88 1007.9
20260506120908 52 313 0.0 1.0 0.00 0.49 0.36 88 1007.9
20260506120408 52 262 1.0 2.0 0.00 0.49 0.36 88 1007.9
20260506115907 52 350 0.0 2.0 0.00 0.49 0.36 88 1008.0
20260506115407 52 345 0.0 3.0 0.00 0.49 0.36 88 1008.0
20260506114907 52 1 0.0 2.0 0.00 0.49 0.36 88 1007.9
20260506113907 53 34 0.0 3.0 0.00 0.49 0.36 89 1007.9
20260506113407 52 30 1.0 3.0 0.00 0.49 0.36 89 1007.9
20260506112907 52 326 1.0 2.0 0.00 0.49 0.36 89 1007.8
20260506112407 52 52 1.0 3.0 0.00 0.49 0.36 89 1007.9
20260506111908 52 29 1.0 2.0 0.00 0.49 0.36 89 1007.9
20260506111407 52 51 1.0 2.0 0.00 0.49 0.36 89 1007.9
20260506110407 51 33 1.0 7.0 0.00 0.49 0.36 89 1007.9
20260506105908 50 64 0.0 0.0 0.00 0.49 0.36 89 1007.9
20260506105407 50 37 0.0 1.0 0.00 0.49 0.36 89 1008.0
20260506104407 50 24 0.0 1.0 0.01 0.49 0.36 89 1008.0
20260506103907 50 28 0.0 2.0 0.01 0.49 0.36 89 1008.0
20260506103407 49 38 1.0 8.0 0.01 0.49 0.36 89 1008.0
20260506102907 50 48 1.0 2.0 0.02 0.49 0.36 89 1008.0
20260506101907 50 55 0.0 3.0 0.02 0.49 0.36 89 1007.9
20260506101408 50 43 1.0 3.0 0.02 0.49 0.36 89 1007.9
20260506100907 50 73 0.0 3.0 0.02 0.49 0.36 89 1007.8
20260506100408 49 35 0.0 1.0 0.02 0.49 0.36 89 1007.7
20260506095908 49 44 0.0 3.0 0.03 0.49 0.36 89 1007.7
20260506095407 49 347 0.0 0.0 0.03 0.49 0.36 89 1007.7
20260506094907 49 32 0.0 0.0 0.04 0.49 0.36 89 1007.7
20260506093408 49 44 0.0 0.0 0.03 0.48 0.35 89 1007.6
20260506092907 49 47 0.0 2.0 0.02 0.47 0.35 89 1007.6
20260506091911 49 143 0.0 0.0 0.02 0.47 0.35 89 1007.5
20260506090908 49 26 0.0 3.0 0.02 0.47 0.34 89 1007.4
20260506090407 48 24 1.0 2.0 0.02 0.47 0.34 89 1007.4
20260506085907 48 319 0.0 2.0 0.02 0.46 0.33 89 1007.4
20260506085408 48 336 0.0 3.0 0.02 0.46 0.33 89 1007.4
20260506084907 48 39 0.0 3.0 0.01 0.46 0.32 89 1007.3
20260506084407 48 357 1.0 3.0 0.01 0.46 0.32 89 1007.3
20260506083907 48 319 0.0 2.0 0.01 0.46 0.32 89 1007.2
20260506083407 48 307 0.0 3.0 0.01 0.46 0.32 89 1007.2
20260506082907 48 330 0.0 3.0 0.01 0.46 0.32 89 1007.1
20260506081907 48 24 0.0 2.0 0.02 0.46 0.32 89 1007.1
20260506081407 48 291 1.0 2.0 0.01 0.45 0.31 89 1007.0
20260506080907 48 316 1.0 2.0 0.01 0.45 0.31 89 1007.0
20260506080407 48 53 1.0 3.0 0.01 0.45 0.31 89 1007.0
20260506073406 47 327 1.0 5.0 0.02 0.46 0.31 89 1006.8
20260506072907 47 321 0.0 1.0 0.02 0.46 0.31 89 1006.6
20260506072407 47 313 0.0 1.0 0.03 0.46 0.31 89 1006.7
20260506071907 47 304 1.0 2.0 0.02 0.46 0.31 89 1006.6
20260506071407 47 16 1.0 2.0 0.03 0.46 0.31 89 1006.6
20260506070908 47 5 0.0 1.0 0.03 0.46 0.31 89 1006.6
20260506070406 47 37 0.0 3.0 0.03 0.46 0.31 89 1006.6
20260506062407 47 2 1.0 2.0 0.05 0.43 0.28 89 1006.5
20260506061407 46 181 0.0 0.0 0.06 0.43 0.28 89 1006.4
20260506060407 46 255 0.0 0.0 0.06 0.43 0.28 89 1006.5
20260506051406 46 35 0.0 1.0 0.04 0.37 0.22 90 1006.5
20260506050907 46 338 1.0 2.0 0.05 0.37 0.22 90 1006.4
20260506044907 46 336 1.0 3.0 0.03 0.35 0.20 89 1006.3
20260506044408 46 27 0.0 2.0 0.03 0.35 0.20 89 1006.3
20260506043907 46 12 0.0 2.0 0.02 0.34 0.19 89 1006.3
20260506043407 46 10 1.0 2.0 0.03 0.34 0.19 89 1006.3
20260506042907 46 36 0.0 3.0 0.03 0.33 0.18 89 1006.3
20260506042407 46 342 1.0 2.0 0.03 0.33 0.18 89 1006.2
20260506041907 46 15 0.0 0.0 0.03 0.33 0.18 89 1006.2
20260506041407 46 26 0.0 1.0 0.04 0.33 0.18 89 1006.2
20260506040908 47 72 1.0 3.0 0.03 0.32 0.17 89 1006.1
20260506040407 47 73 1.0 7.0 0.03 0.32 0.17 89 1006.1
20260506035407 47 52 0.0 3.0 0.03 0.32 0.17 90 1006.1
20260506034907 47 46 1.0 3.0 0.02 0.31 0.17 89 1006.1
20260506034406 47 62 0.0 0.0 0.02 0.31 0.17 89 1006.2
20260506033906 47 56 0.0 0.0 0.02 0.31 0.17 89 1006.2
20260506032907 47 53 1.0 2.0 0.02 0.30 0.15 89 1006.2
20260506031908 47 27 1.0 3.0 0.02 0.30 0.15 89 1006.2
20260506031407 47 34 0.0 1.0 0.02 0.29 0.14 89 1006.2
20260506030907 47 52 1.0 2.0 0.02 0.29 0.14 89 1006.2
20260506030408 47 41 0.0 2.0 0.02 0.29 0.14 89 1006.2
20260506025907 47 18 0.0 1.0 0.02 0.29 0.14 89 1006.3
20260506025407 47 61 1.0 2.0 0.02 0.29 0.14 89 1006.3
20260506024907 47 58 1.0 2.0 0.02 0.29 0.14 89 1006.3
20260506024407 47 14 1.0 2.0 0.02 0.29 0.14 89 1006.3
20260506023907 47 13 0.0 2.0 0.02 0.29 0.14 89 1006.3
20260506023407 47 41 0.0 2.0 0.03 0.29 0.14 89 1006.4
20260506022907 47 2 1.0 3.0 0.02 0.28 0.13 89 1006.3
20260506022407 48 5 1.0 8.0 0.02 0.28 0.13 89 1006.4
20260506021906 48 51 0.0 2.0 0.03 0.28 0.13 89 1006.3
20260506021407 48 79 1.0 3.0 0.02 0.28 0.13 89 1006.3
20260506020407 48 68 0.0 2.0 0.03 0.28 0.13 89 1006.4
20260506015907 48 64 0.0 2.0 0.03 0.28 0.13 89 1006.4
20260506015407 48 79 0.0 2.0 0.03 0.27 0.12 89 1006.3
20260506014907 48 59 0.0 2.0 0.03 0.27 0.12 89 1006.3
20260506014406 48 43 1.0 5.0 0.04 0.27 0.12 89 1006.3
20260506012907 48 39 1.0 3.0 0.04 0.26 0.11 89 1006.4
20260506012408 48 52 0.0 3.0 0.04 0.26 0.11 89 1006.4
20260506011907 49 44 1.0 5.0 0.03 0.25 0.10 89 1006.4
20260506011407 49 89 1.0 3.0 0.04 0.25 0.10 89 1006.4
20260506010907 49 316 1.0 3.0 0.04 0.25 0.10 89 1006.4
20260506010407 49 42 0.0 3.0 0.03 0.24 0.09 89 1006.3
20260506005907 49 52 0.0 2.0 0.04 0.24 0.09 89 1006.4
20260506005407 49 58 1.0 7.0 0.03 0.24 0.09 89 1006.4
20260506004908 49 67 0.0 0.0 0.04 0.24 0.09 89 1006.4
20260506004406 49 5 0.0 2.0 0.03 0.23 0.08 89 1006.4
20260506003906 49 50 1.0 7.0 0.04 0.23 0.08 89 1006.4
20260506003407 49 0 0.0 0.0 0.04 0.23 0.08 89 1006.5
20260506002407 49 53 0.0 0.0 0.03 0.22 0.07 89 1006.5
20260506001907 49 9 1.0 3.0 0.04 0.22 0.07 89 1006.5
20260506001406 49 40 0.0 0.0 0.03 0.21 0.06 89 1006.5
20260506000907 49 68 1.0 3.0 0.03 0.21 0.06 89 1006.6
20260506000408 49 61 0.0 2.0 0.04 0.21 0.06 89 1006.6
20260505235907 49 59 1.0 3.0 0.03 0.20 0.06 89 1006.7
20260505235407 49 44 1.0 3.0 0.04 0.20 0.06 89 1006.7
20260505234907 49 59 0.0 7.0 0.03 0.20 0.05 89 1006.7
20260505234408 49 30 1.0 3.0 0.03 0.20 0.05 89 1006.7
20260505233907 49 65 0.0 3.0 0.02 0.19 0.04 89 1006.7
20260505232907 49 46 1.0 3.0 0.03 0.19 0.04 89 1006.8
20260505232407 49 25 1.0 10.0 0.03 0.19 0.04 89 1006.8
20260505231907 49 62 0.0 3.0 0.02 0.18 0.03 89 1006.9
20260505231406 49 54 1.0 5.0 0.02 0.18 0.03 89 1006.8
20260505230907 49 39 1.0 6.0 0.03 0.18 0.03 89 1006.9
20260505230407 49 51 2.0 6.0 0.02 0.17 0.02 89 1006.9
20260505225907 50 63 2.0 8.0 0.02 0.17 0.02 89 1006.9
20260505225407 50 56 1.0 7.0 0.02 0.17 0.02 89 1006.9
20260505224907 50 26 2.0 8.0 0.02 0.17 0.02 89 1007.0
20260505224407 50 48 1.0 8.0 0.02 0.17 0.02 89 1007.0
20260505223906 50 37 2.0 5.0 0.03 0.17 0.02 89 1007.0
20260505223407 50 34 1.0 3.0 0.02 0.16 0.01 89 1007.0
20260505222908 50 79 1.0 5.0 0.02 0.16 0.01 89 1007.0
20260505222407 50 36 1.0 3.0 0.03 0.16 0.01 89 1007.0
20260505221907 50 42 3.0 8.0 0.03 0.16 0.01 89 1006.9
20260505221407 50 44 2.0 7.0 0.04 0.16 0.01 89 1007.0
20260505220407 50 38 2.0 8.0 0.04 0.15 0.00 89 1007.0
20260505215907 50 40 1.0 6.0 0.04 0.15 0.15 89 1007.0
20260505215407 50 61 1.0 7.0 0.04 0.15 0.15 89 1007.1
20260505214907 50 44 1.0 6.0 0.03 0.14 0.14 89 1007.0
20260505214407 50 54 1.0 3.0 0.04 0.14 0.14 89 1007.1
20260505212906 50 43 1.0 7.0 0.04 0.13 0.13 89 1007.1
20260505211907 50 0 1.0 8.0 0.04 0.13 0.13 89 1007.1
20260505211407 50 9 1.0 5.0 0.03 0.12 0.12 89 1007.2
20260505210907 51 48 2.0 10.0 0.03 0.12 0.12 89 1007.2
20260505210406 51 37 0.0 2.0 0.03 0.11 0.11 89 1007.2
20260505205907 51 48 0.0 8.0 0.03 0.11 0.11 89 1007.2
20260505205406 51 58 0.0 2.0 0.03 0.11 0.11 89 1007.2
20260505204906 51 54 2.0 6.0 0.03 0.11 0.11 89 1007.2
20260505204407 51 65 0.0 2.0 0.03 0.10 0.10 89 1007.2
20260505203907 51 56 0.0 2.0 0.03 0.10 0.10 89 1007.2
20260505203407 51 33 0.0 2.0 0.03 0.10 0.10 89 1007.2
20260505202907 51 42 1.0 5.0 0.03 0.09 0.09 89 1007.2
20260505202407 51 45 0.0 6.0 0.03 0.09 0.09 89 1007.2
20260505201907 51 55 1.0 5.0 0.02 0.09 0.09 89 1007.2
20260505201407 51 57 0.0 0.0 0.02 0.09 0.09 89 1007.1
20260505200407 51 38 2.0 5.0 0.02 0.08 0.08 89 1007.1
20260505195907 51 75 1.0 3.0 0.02 0.08 0.08 89 1007.1
20260505195407 51 63 2.0 8.0 0.02 0.08 0.08 89 1007.0
20260505194907 51 72 1.0 7.0 0.03 0.08 0.08 89 1007.0
20260505194407 51 48 0.0 6.0 0.02 0.07 0.07 89 1007.0
20260505193907 51 55 0.0 8.0 0.02 0.07 0.07 89 1007.0
20260505193406 51 26 2.0 6.0 0.02 0.07 0.07 89 1007.0
20260505192907 51 60 1.0 3.0 0.02 0.06 0.06 89 1006.9
20260505192407 51 68 1.0 6.0 0.02 0.06 0.06 89 1006.9
20260505191907 51 56 1.0 5.0 0.02 0.06 0.06 89 1006.9
20260505191407 51 41 0.0 7.0 0.02 0.06 0.06 89 1006.9
20260505190907 51 63 1.0 7.0 0.02 0.06 0.06 89 1006.9
20260505190407 51 68 1.0 3.0 0.02 0.06 0.06 89 1006.8
20260505185906 51 65 0.0 3.0 0.02 0.06 0.06 89 1006.8
20260505184407 51 55 2.0 5.0 0.02 0.05 0.05 89 1006.8
20260505183907 51 53 2.0 10.0 0.02 0.05 0.05 89 1006.8
20260505183407 51 50 1.0 7.0 0.02 0.05 0.05 89 1006.8
20260505182907 52 56 1.0 3.0 0.02 0.04 0.04 89 1006.8
20260505182406 52 67 0.0 2.0 0.02 0.04 0.04 89 1006.8
20260505181407 52 70 1.0 5.0 0.02 0.04 0.04 89 1006.8
20260505180907 52 40 0.0 5.0 0.01 0.03 0.03 89 1006.8
20260505180406 52 56 1.0 5.0 0.01 0.03 0.03 89 1006.8
20260505175906 52 59 1.0 3.0 0.01 0.03 0.03 89 1006.8
20260505175407 52 64 1.0 2.0 0.00 0.02 0.02 89 1006.8